| time (UTC) | temp F | wind direction | speed MPH | gust MPH | rain 1hr in | rain 24hr in | rain mn in | humidity % | barometer mb |
| 20260903060106 | 60 | 270 | 0.0 | 0.0 | 0.00 | 0.00 | 0.00 | 82 | 1007.1 |
| 20260903055105 | 61 | 292 | 0.0 | 1.0 | 0.00 | 0.00 | 0.00 | 81 | 1007.3 |
| 20260903054106 | 61 | 292 | 0.0 | 0.0 | 0.00 | 0.00 | 0.00 | 81 | 1007.2 |
| 20260903053605 | 61 | 247 | 0.0 | 2.0 | 0.00 | 0.00 | 0.00 | 80 | 1007.5 |
| 20260903053106 | 61 | 280 | 1.0 | 2.0 | 0.00 | 0.00 | 0.00 | 80 | 1007.5 |
| 20260903052605 | 61 | 247 | 1.0 | 2.0 | 0.00 | 0.00 | 0.00 | 80 | 1007.5 |
| 20260903052106 | 61 | 250 | 0.0 | 3.0 | 0.00 | 0.00 | 0.00 | 80 | 1007.5 |
| 20260903051106 | 62 | 202 | 1.0 | 2.0 | 0.00 | 0.00 | 0.00 | 79 | 1007.5 |
| 20260903050106 | 62 | 337 | 0.0 | 2.0 | 0.00 | 0.00 | 0.00 | 78 | 1007.5 |
| 20260903045606 | 62 | 302 | 0.0 | 2.0 | 0.00 | 0.00 | 0.00 | 78 | 1007.8 |
| 20260903044607 | 63 | 202 | 1.0 | 3.0 | 0.00 | 0.00 | 0.00 | 76 | 1007.5 |
| 20260903044105 | 63 | 157 | 1.0 | 3.0 | 0.00 | 0.00 | 0.00 | 76 | 1007.5 |
| 20260903043107 | 63 | 247 | 1.0 | 2.0 | 0.00 | 0.00 | 0.00 | 75 | 1007.5 |
| 20260903041606 | 64 | 157 | 0.0 | 2.0 | 0.00 | 0.00 | 0.00 | 74 | 1007.1 |
| 20260903041105 | 64 | 164 | 2.0 | 6.0 | 0.00 | 0.00 | 0.00 | 74 | 1007.1 |
| 20260903040107 | 63 | 175 | 0.0 | 3.0 | 0.00 | 0.00 | 0.00 | 74 | 1007.1 |
| 20260903035105 | 64 | 270 | 0.0 | 0.0 | 0.00 | 0.00 | 0.00 | 74 | 1006.8 |
| 20260903034606 | 64 | 157 | 0.0 | 2.0 | 0.00 | 0.00 | 0.00 | 73 | 1006.8 |
| 20260903034105 | 64 | 157 | 1.0 | 2.0 | 0.00 | 0.00 | 0.00 | 72 | 1006.8 |
| 20260903033605 | 64 | 198 | 0.0 | 1.0 | 0.00 | 0.00 | 0.00 | 71 | 1006.7 |
| 20260903033105 | 64 | 112 | 0.0 | 1.0 | 0.00 | 0.00 | 0.00 | 70 | 1006.5 |
| 20260903032606 | 65 | 292 | 0.0 | 0.0 | 0.00 | 0.00 | 0.00 | 70 | 1006.4 |
| 20260903032107 | 65 | 292 | 0.0 | 2.0 | 0.00 | 0.00 | 0.00 | 70 | 1006.4 |
| 20260903031605 | 66 | 292 | 0.0 | 1.0 | 0.00 | 0.00 | 0.00 | 70 | 1006.3 |
| 20260903031105 | 66 | 292 | 0.0 | 2.0 | 0.00 | 0.00 | 0.00 | 69 | 1006.1 |
| 20260903030605 | 66 | 220 | 1.0 | 3.0 | 0.00 | 0.00 | 0.00 | 68 | 1006.1 |
| 20260903030106 | 67 | 93 | 1.0 | 3.0 | 0.00 | 0.00 | 0.00 | 66 | 1006.1 |
| 20260903025605 | 67 | 202 | 1.0 | 5.0 | 0.00 | 0.00 | 0.00 | 65 | 1006.1 |
| 20260903025105 | 68 | 67 | 0.0 | 1.0 | 0.00 | 0.00 | 0.00 | 64 | 1006.1 |
| 20260903024606 | 68 | 143 | 1.0 | 2.0 | 0.00 | 0.00 | 0.00 | 63 | 1006.1 |
| 20260903024105 | 69 | 135 | 1.0 | 3.0 | 0.00 | 0.00 | 0.00 | 61 | 1006.1 |
| 20260903023606 | 70 | 214 | 0.0 | 2.0 | 0.00 | 0.00 | 0.00 | 60 | 1006.1 |
| 20260903023105 | 70 | 91 | 1.0 | 3.0 | 0.00 | 0.00 | 0.00 | 59 | 1006.0 |
| 20260903022105 | 71 | 194 | 1.0 | 3.0 | 0.00 | 0.00 | 0.00 | 58 | 1006.1 |
| 20260903021605 | 72 | 265 | 1.0 | 3.0 | 0.00 | 0.00 | 0.00 | 58 | 1006.1 |
| 20260903021107 | 72 | 112 | 0.0 | 2.0 | 0.00 | 0.00 | 0.00 | 58 | 1006.1 |
| 20260903020605 | 72 | 247 | 2.0 | 5.0 | 0.00 | 0.00 | 0.00 | 58 | 1006.1 |
| 20260903020105 | 72 | 232 | 0.0 | 6.0 | 0.00 | 0.00 | 0.00 | 58 | 1006.1 |
| 20260903015605 | 72 | 293 | 2.0 | 6.0 | 0.00 | 0.00 | 0.00 | 58 | 1006.1 |
| 20260903014605 | 72 | 274 | 2.0 | 6.0 | 0.00 | 0.00 | 0.00 | 56 | 1006.1 |
| 20260903014105 | 72 | 238 | 5.0 | 8.0 | 0.00 | 0.00 | 0.00 | 56 | 1006.1 |
| 20260903013606 | 72 | 286 | 3.0 | 7.0 | 0.00 | 0.00 | 0.00 | 55 | 1006.1 |
| 20260903011605 | 73 | 241 | 6.0 | 10.0 | 0.00 | 0.00 | 0.00 | 51 | 1006.1 |
| 20260903011105 | 74 | 242 | 5.0 | 9.0 | 0.00 | 0.00 | 0.00 | 50 | 1005.9 |
| 20260903010605 | 74 | 293 | 3.0 | 8.0 | 0.00 | 0.00 | 0.00 | 49 | 1006.1 |
| 20260903010105 | 75 | 254 | 6.0 | 12.0 | 0.00 | 0.00 | 0.00 | 48 | 1005.9 |
| 20260903005605 | 75 | 267 | 5.0 | 12.0 | 0.00 | 0.00 | 0.00 | 47 | 1006.1 |
| 20260903005106 | 76 | 244 | 4.0 | 9.0 | 0.00 | 0.00 | 0.00 | 46 | 1006.1 |
| 20260903004105 | 77 | 232 | 3.0 | 6.0 | 0.00 | 0.00 | 0.00 | 44 | 1006.1 |
| 20260903003605 | 76 | 148 | 1.0 | 8.0 | 0.00 | 0.00 | 0.00 | 44 | 1006.1 |
| 20260903003106 | 76 | 196 | 2.0 | 6.0 | 0.00 | 0.00 | 0.00 | 44 | 1006.1 |
| 20260903002606 | 76 | 244 | 3.0 | 6.0 | 0.00 | 0.00 | 0.00 | 43 | 1006.1 |
| 20260903001605 | 76 | 235 | 2.0 | 6.0 | 0.00 | 0.00 | 0.00 | 41 | 1006.1 |
| 20260903001105 | 75 | 228 | 5.0 | 9.0 | 0.00 | 0.00 | 0.00 | 42 | 1006.3 |
| 20260903000605 | 75 | 218 | 3.0 | 7.0 | 0.00 | 0.00 | 0.00 | 42 | 1006.4 |
| 20260903000105 | 74 | 214 | 3.0 | 7.0 | 0.00 | 0.00 | 0.00 | 42 | 1006.4 |
| 20260902235607 | 74 | 234 | 4.0 | 10.0 | 0.00 | 0.00 | 0.00 | 44 | 1006.4 |
| 20260902235105 | 74 | 239 | 6.0 | 13.0 | 0.00 | 0.00 | 0.00 | 45 | 1006.4 |
| 20260902234605 | 74 | 235 | 5.0 | 10.0 | 0.00 | 0.00 | 0.00 | 46 | 1006.4 |
| 20260902234105 | 74 | 258 | 5.0 | 12.0 | 0.00 | 0.00 | 0.00 | 47 | 1006.4 |
| 20260902233605 | 74 | 250 | 6.0 | 13.0 | 0.00 | 0.00 | 0.00 | 48 | 1006.4 |
| 20260902233105 | 74 | 246 | 5.0 | 10.0 | 0.00 | 0.00 | 0.00 | 49 | 1006.4 |
| 20260902232605 | 74 | 255 | 7.0 | 12.0 | 0.00 | 0.00 | 0.00 | 50 | 1006.4 |
| 20260902232105 | 74 | 235 | 3.0 | 7.0 | 0.00 | 0.00 | 0.00 | 51 | 1006.4 |
| 20260902231606 | 74 | 245 | 4.0 | 8.0 | 0.00 | 0.00 | 0.00 | 52 | 1006.6 |
| 20260902231105 | 74 | 247 | 6.0 | 12.0 | 0.00 | 0.00 | 0.00 | 52 | 1006.4 |
| 20260902230605 | 74 | 240 | 6.0 | 12.0 | 0.00 | 0.00 | 0.00 | 53 | 1006.4 |
| 20260902230107 | 75 | 225 | 5.0 | 10.0 | 0.00 | 0.00 | 0.00 | 53 | 1006.6 |
| 20260902225605 | 75 | 239 | 6.0 | 14.0 | 0.00 | 0.00 | 0.00 | 54 | 1006.6 |
| 20260902225105 | 75 | 264 | 3.0 | 10.0 | 0.00 | 0.00 | 0.00 | 55 | 1006.6 |
| 20260902224605 | 74 | 208 | 5.0 | 8.0 | 0.00 | 0.00 | 0.00 | 56 | 1006.8 |
| 20260902224105 | 74 | 230 | 5.0 | 12.0 | 0.00 | 0.00 | 0.00 | 56 | 1006.8 |
| 20260902223605 | 74 | 211 | 4.0 | 9.0 | 0.00 | 0.00 | 0.00 | 56 | 1006.8 |
| 20260902223105 | 74 | 239 | 7.0 | 12.0 | 0.00 | 0.00 | 0.00 | 56 | 1006.8 |
| 20260902222104 | 75 | 226 | 6.0 | 13.0 | 0.00 | 0.00 | 0.00 | 56 | 1006.8 |
| 20260902221106 | 74 | 229 | 5.0 | 12.0 | 0.00 | 0.00 | 0.00 | 57 | 1006.8 |
| 20260902220606 | 74 | 247 | 4.0 | 9.0 | 0.00 | 0.00 | 0.00 | 57 | 1006.8 |
| 20260902220105 | 74 | 227 | 3.0 | 9.0 | 0.00 | 0.00 | 0.00 | 57 | 1006.9 |
| 20260902215606 | 74 | 236 | 5.0 | 12.0 | 0.00 | 0.00 | 0.00 | 57 | 1007.1 |
| 20260902215105 | 75 | 241 | 3.0 | 8.0 | 0.00 | 0.00 | 0.00 | 56 | 1007.1 |
| 20260902214605 | 75 | 231 | 4.0 | 8.0 | 0.00 | 0.00 | 0.00 | 56 | 1007.1 |
| 20260902214105 | 75 | 157 | 3.0 | 10.0 | 0.00 | 0.00 | 0.00 | 57 | 1007.1 |
| 20260902213105 | 74 | 279 | 3.0 | 8.0 | 0.00 | 0.00 | 0.00 | 57 | 1007.1 |
| 20260902212604 | 74 | 232 | 4.0 | 9.0 | 0.00 | 0.00 | 0.00 | 57 | 1007.1 |
| 20260902212105 | 75 | 200 | 5.0 | 9.0 | 0.00 | 0.00 | 0.00 | 57 | 1007.1 |
| 20260902211605 | 75 | 238 | 3.0 | 8.0 | 0.00 | 0.00 | 0.00 | 56 | 1007.1 |
| 20260902211105 | 75 | 196 | 3.0 | 7.0 | 0.00 | 0.00 | 0.00 | 57 | 1007.1 |
| 20260902210605 | 74 | 220 | 2.0 | 8.0 | 0.00 | 0.00 | 0.00 | 59 | 1007.1 |
| 20260902210106 | 73 | 176 | 2.0 | 7.0 | 0.00 | 0.00 | 0.00 | 59 | 1007.5 |
| 20260902205106 | 74 | 225 | 5.0 | 8.0 | 0.00 | 0.00 | 0.00 | 59 | 1007.1 |
| 20260902204606 | 73 | 263 | 3.0 | 7.0 | 0.00 | 0.00 | 0.00 | 60 | 1007.1 |
| 20260902204105 | 73 | 223 | 3.0 | 8.0 | 0.00 | 0.00 | 0.00 | 60 | 1007.3 |
| 20260902203606 | 73 | 251 | 5.0 | 9.0 | 0.00 | 0.00 | 0.00 | 61 | 1007.5 |
| 20260902203106 | 73 | 191 | 3.0 | 7.0 | 0.00 | 0.00 | 0.00 | 62 | 1007.6 |
| 20260902202605 | 73 | 240 | 3.0 | 8.0 | 0.00 | 0.00 | 0.00 | 62 | 1007.5 |
| 20260902202105 | 73 | 229 | 4.0 | 8.0 | 0.00 | 0.00 | 0.00 | 63 | 1007.5 |
| 20260902201604 | 72 | 222 | 2.0 | 7.0 | 0.00 | 0.00 | 0.00 | 64 | 1007.6 |
| 20260902201105 | 71 | 221 | 3.0 | 9.0 | 0.00 | 0.00 | 0.00 | 65 | 1007.8 |
| 20260902200606 | 71 | 236 | 5.0 | 12.0 | 0.00 | 0.00 | 0.00 | 66 | 1007.8 |
| 20260902200105 | 71 | 254 | 4.0 | 9.0 | 0.00 | 0.00 | 0.00 | 66 | 1007.8 |
| 20260902195605 | 71 | 231 | 4.0 | 9.0 | 0.00 | 0.00 | 0.00 | 67 | 1007.8 |
| 20260902195105 | 71 | 238 | 7.0 | 10.0 | 0.00 | 0.00 | 0.00 | 69 | 1008.0 |
| 20260902194605 | 70 | 278 | 4.0 | 8.0 | 0.00 | 0.00 | 0.00 | 70 | 1008.1 |
| 20260902194104 | 69 | 274 | 5.0 | 9.0 | 0.00 | 0.00 | 0.00 | 70 | 1008.1 |
| 20260902193606 | 70 | 248 | 5.0 | 10.0 | 0.00 | 0.00 | 0.00 | 69 | 1008.1 |
| 20260902192606 | 70 | 257 | 5.0 | 13.0 | 0.00 | 0.00 | 0.00 | 68 | 1008.1 |
| 20260902192105 | 70 | 238 | 5.0 | 12.0 | 0.00 | 0.00 | 0.00 | 68 | 1008.1 |
| 20260902191605 | 70 | 249 | 3.0 | 8.0 | 0.00 | 0.00 | 0.00 | 68 | 1008.1 |
| 20260902190606 | 71 | 288 | 4.0 | 7.0 | 0.00 | 0.00 | 0.00 | 65 | 1008.1 |
| 20260902190104 | 72 | 254 | 3.0 | 6.0 | 0.00 | 0.00 | 0.00 | 63 | 1008.3 |
| 20260902185605 | 72 | 266 | 2.0 | 7.0 | 0.00 | 0.00 | 0.00 | 61 | 1008.3 |
| 20260902185104 | 72 | 240 | 2.0 | 6.0 | 0.00 | 0.00 | 0.00 | 61 | 1008.1 |
| 20260902183605 | 72 | 201 | 0.0 | 5.0 | 0.00 | 0.00 | 0.00 | 61 | 1008.1 |
| 20260902183104 | 71 | 157 | 1.0 | 2.0 | 0.00 | 0.00 | 0.00 | 62 | 1008.1 |
| 20260902182604 | 71 | 225 | 3.0 | 10.0 | 0.00 | 0.00 | 0.00 | 61 | 1008.1 |
| 20260902182105 | 72 | 226 | 3.0 | 5.0 | 0.00 | 0.00 | 0.00 | 61 | 1008.1 |
| 20260902181605 | 72 | 135 | 3.0 | 8.0 | 0.00 | 0.00 | 0.00 | 61 | 1008.1 |
| 20260902180605 | 72 | 130 | 2.0 | 7.0 | 0.00 | 0.00 | 0.00 | 62 | 1008.1 |
| 20260902180105 | 71 | 193 | 1.0 | 5.0 | 0.00 | 0.00 | 0.00 | 62 | 1007.8 |
| 20260902175605 | 71 | 136 | 1.0 | 6.0 | 0.00 | 0.00 | 0.00 | 62 | 1007.9 |
| 20260902175104 | 71 | 159 | 2.0 | 7.0 | 0.00 | 0.00 | 0.00 | 62 | 1007.8 |
| 20260902174604 | 71 | 203 | 1.0 | 7.0 | 0.00 | 0.00 | 0.00 | 62 | 1007.8 |
| 20260902174105 | 71 | 130 | 2.0 | 5.0 | 0.00 | 0.00 | 0.00 | 62 | 1007.8 |
| 20260902173605 | 71 | 221 | 3.0 | 7.0 | 0.00 | 0.00 | 0.00 | 63 | 1007.8 |
| 20260902173106 | 71 | 203 | 1.0 | 7.0 | 0.00 | 0.00 | 0.00 | 63 | 1007.8 |
| 20260902172605 | 70 | 167 | 2.0 | 5.0 | 0.00 | 0.00 | 0.00 | 63 | 1007.8 |
| 20260902172106 | 70 | 143 | 2.0 | 5.0 | 0.00 | 0.00 | 0.00 | 63 | 1007.8 |
| 20260902171604 | 70 | 136 | 0.0 | 8.0 | 0.00 | 0.00 | 0.00 | 64 | 1007.8 |
| 20260902171105 | 70 | 131 | 3.0 | 6.0 | 0.00 | 0.00 | 0.00 | 64 | 1007.8 |
| 20260902170604 | 69 | 143 | 2.0 | 5.0 | 0.00 | 0.00 | 0.00 | 64 | 1007.6 |
| 20260902170106 | 69 | 146 | 3.0 | 6.0 | 0.00 | 0.00 | 0.00 | 64 | 1007.8 |
| 20260902165105 | 69 | 145 | 2.0 | 5.0 | 0.00 | 0.00 | 0.00 | 64 | 1007.8 |
| 20260902164605 | 68 | 180 | 1.0 | 3.0 | 0.00 | 0.00 | 0.00 | 65 | 1007.8 |
| 20260902164105 | 68 | 214 | 2.0 | 5.0 | 0.00 | 0.00 | 0.00 | 65 | 1007.8 |
| 20260902163604 | 68 | 179 | 1.0 | 3.0 | 0.00 | 0.00 | 0.00 | 65 | 1007.8 |
| 20260902163104 | 68 | 181 | 3.0 | 7.0 | 0.00 | 0.00 | 0.00 | 65 | 1007.8 |
| 20260902162604 | 68 | 135 | 2.0 | 3.0 | 0.00 | 0.00 | 0.00 | 64 | 1007.8 |
| 20260902161606 | 68 | 123 | 1.0 | 2.0 | 0.00 | 0.00 | 0.00 | 64 | 1007.8 |
| 20260902161104 | 68 | 130 | 1.0 | 7.0 | 0.00 | 0.00 | 0.00 | 64 | 1007.8 |
| 20260902160105 | 68 | 78 | 2.0 | 3.0 | 0.00 | 0.00 | 0.00 | 66 | 1007.8 |
| 20260902155605 | 67 | 74 | 2.0 | 3.0 | 0.00 | 0.00 | 0.00 | 67 | 1007.8 |
| 20260902154604 | 65 | 147 | 2.0 | 5.0 | 0.00 | 0.00 | 0.00 | 71 | 1007.8 |
| 20260902154105 | 64 | 90 | 0.0 | 2.0 | 0.00 | 0.00 | 0.00 | 74 | 1007.8 |
| 20260902153604 | 63 | 135 | 0.0 | 1.0 | 0.00 | 0.00 | 0.00 | 75 | 1007.8 |
| 20260902153105 | 62 | 85 | 0.0 | 1.0 | 0.00 | 0.00 | 0.00 | 76 | 1007.8 |
| 20260902152605 | 62 | 90 | 0.0 | 0.0 | 0.00 | 0.00 | 0.00 | 76 | 1008.0 |
| 20260902152104 | 62 | 90 | 0.0 | 1.0 | 0.00 | 0.00 | 0.00 | 77 | 1007.9 |
| 20260902151604 | 62 | 90 | 1.0 | 1.0 | 0.00 | 0.00 | 0.00 | 78 | 1008.1 |
| 20260902151104 | 62 | 90 | 0.0 | 0.0 | 0.00 | 0.00 | 0.00 | 78 | 1007.8 |
| 20260902150605 | 61 | 90 | 0.0 | 0.0 | 0.00 | 0.00 | 0.00 | 79 | 1007.8 |
| 20260902150104 | 61 | 67 | 0.0 | 0.0 | 0.00 | 0.00 | 0.00 | 79 | 1007.8 |
| 20260902145604 | 61 | 95 | 0.0 | 2.0 | 0.00 | 0.00 | 0.00 | 80 | 1007.6 |
| 20260902145104 | 61 | 135 | 0.0 | 0.0 | 0.00 | 0.00 | 0.00 | 80 | 1007.5 |
| 20260902144605 | 61 | 135 | 0.0 | 0.0 | 0.00 | 0.00 | 0.00 | 80 | 1007.3 |
| 20260902144105 | 61 | 135 | 0.0 | 0.0 | 0.00 | 0.00 | 0.00 | 80 | 1007.1 |
| 20260902143605 | 60 | 135 | 0.0 | 1.0 | 0.00 | 0.00 | 0.00 | 80 | 1007.1 |
| 20260902143104 | 60 | 135 | 1.0 | 2.0 | 0.00 | 0.00 | 0.00 | 81 | 1007.1 |
| 20260902142605 | 60 | 135 | 0.0 | 1.0 | 0.00 | 0.00 | 0.00 | 81 | 1007.1 |
| 20260902142106 | 60 | 135 | 0.0 | 1.0 | 0.00 | 0.00 | 0.00 | 81 | 1006.8 |
| 20260902141604 | 60 | 135 | 0.0 | 1.0 | 0.00 | 0.00 | 0.00 | 81 | 1007.0 |
| 20260902141104 | 60 | 135 | 1.0 | 3.0 | 0.00 | 0.00 | 0.00 | 81 | 1006.9 |
| 20260902140105 | 61 | 157 | 1.0 | 2.0 | 0.00 | 0.00 | 0.00 | 80 | 1007.1 |
| 20260902135604 | 61 | 157 | 0.0 | 2.0 | 0.00 | 0.00 | 0.00 | 80 | 1006.9 |
| 20260902135104 | 61 | 157 | 0.0 | 2.0 | 0.00 | 0.00 | 0.00 | 80 | 1007.1 |
| 20260902134604 | 61 | 166 | 2.0 | 5.0 | 0.00 | 0.00 | 0.00 | 81 | 1006.8 |
| 20260902134104 | 61 | 142 | 2.0 | 3.0 | 0.00 | 0.00 | 0.00 | 81 | 1006.8 |
| 20260902133605 | 61 | 151 | 2.0 | 5.0 | 0.00 | 0.00 | 0.00 | 82 | 1006.8 |
| 20260902133105 | 60 | 135 | 1.0 | 3.0 | 0.00 | 0.00 | 0.00 | 82 | 1006.8 |
| 20260902132604 | 60 | 157 | 2.0 | 5.0 | 0.00 | 0.00 | 0.00 | 83 | 1006.8 |
| 20260902132104 | 60 | 112 | 1.0 | 5.0 | 0.00 | 0.00 | 0.00 | 84 | 1006.8 |
| 20260902131605 | 60 | 135 | 1.0 | 3.0 | 0.00 | 0.00 | 0.00 | 85 | 1006.8 |
| 20260902131105 | 60 | 113 | 0.0 | 1.0 | 0.00 | 0.00 | 0.00 | 85 | 1006.8 |
| 20260902130604 | 60 | 90 | 0.0 | 2.0 | 0.00 | 0.00 | 0.00 | 86 | 1006.8 |
| 20260902130104 | 60 | 135 | 1.0 | 2.0 | 0.00 | 0.00 | 0.00 | 86 | 1006.8 |
| 20260902125605 | 59 | 90 | 0.0 | 1.0 | 0.00 | 0.00 | 0.00 | 86 | 1006.8 |
| 20260902125104 | 59 | 67 | 0.0 | 1.0 | 0.00 | 0.00 | 0.00 | 86 | 1006.8 |
| 20260902124604 | 59 | 112 | 0.0 | 0.0 | 0.00 | 0.00 | 0.00 | 86 | 1006.8 |
| 20260902124105 | 59 | 112 | 0.0 | 1.0 | 0.00 | 0.00 | 0.00 | 86 | 1006.8 |
| 20260902123604 | 59 | 112 | 0.0 | 0.0 | 0.00 | 0.00 | 0.00 | 86 | 1006.8 |
| 20260902123104 | 59 | 112 | 0.0 | 1.0 | 0.00 | 0.00 | 0.00 | 86 | 1006.8 |
| 20260902122605 | 59 | 45 | 0.0 | 1.0 | 0.00 | 0.00 | 0.00 | 86 | 1006.8 |
| 20260902122105 | 59 | 112 | 0.0 | 1.0 | 0.00 | 0.00 | 0.00 | 86 | 1006.8 |
| 20260902121104 | 59 | 112 | 0.0 | 1.0 | 0.00 | 0.00 | 0.00 | 86 | 1006.8 |
| 20260902120606 | 59 | 112 | 0.0 | 1.0 | 0.00 | 0.00 | 0.00 | 86 | 1006.8 |
| 20260902120104 | 59 | 112 | 0.0 | 0.0 | 0.00 | 0.00 | 0.00 | 86 | 1006.8 |
| 20260902115103 | 59 | 157 | 0.0 | 0.0 | 0.00 | 0.00 | 0.00 | 85 | 1006.8 |
| 20260902114604 | 59 | 180 | 0.0 | 0.0 | 0.00 | 0.00 | 0.00 | 85 | 1006.8 |
| 20260902114104 | 59 | 180 | 0.0 | 0.0 | 0.00 | 0.00 | 0.00 | 85 | 1006.8 |
| 20260902113604 | 59 | 180 | 0.0 | 0.0 | 0.00 | 0.00 | 0.00 | 85 | 1006.8 |
| 20260902113104 | 60 | 180 | 0.0 | 1.0 | 0.00 | 0.00 | 0.00 | 85 | 1006.8 |
| 20260902112604 | 60 | 180 | 1.0 | 2.0 | 0.00 | 0.00 | 0.00 | 84 | 1006.8 |
| 20260902112104 | 60 | 157 | 0.0 | 2.0 | 0.00 | 0.00 | 0.00 | 84 | 1006.8 |
| 20260902111604 | 60 | 135 | 0.0 | 0.0 | 0.00 | 0.00 | 0.00 | 84 | 1006.8 |
| 20260902111105 | 61 | 135 | 1.0 | 2.0 | 0.00 | 0.00 | 0.00 | 84 | 1006.8 |
| 20260902110604 | 61 | 90 | 0.0 | 0.0 | 0.00 | 0.00 | 0.00 | 84 | 1006.8 |
| 20260902110104 | 61 | 90 | 0.0 | 0.0 | 0.00 | 0.00 | 0.00 | 84 | 1006.9 |
| 20260902105604 | 61 | 112 | 1.0 | 2.0 | 0.00 | 0.00 | 0.00 | 84 | 1007.1 |
| 20260902105105 | 61 | 67 | 0.0 | 2.0 | 0.00 | 0.00 | 0.00 | 84 | 1007.1 |
| 20260902103605 | 61 | 67 | 0.0 | 2.0 | 0.00 | 0.00 | 0.00 | 85 | 1007.3 |
| 20260902103105 | 61 | 69 | 0.0 | 2.0 | 0.00 | 0.00 | 0.00 | 85 | 1007.1 |
| 20260902102604 | 61 | 69 | 0.0 | 2.0 | 0.00 | 0.00 | 0.00 | 85 | 1007.1 |
| 20260902102104 | 60 | 67 | 1.0 | 2.0 | 0.00 | 0.00 | 0.00 | 86 | 1007.1 |
| 20260902101604 | 60 | 67 | 1.0 | 2.0 | 0.00 | 0.00 | 0.00 | 86 | 1006.9 |
| 20260902101107 | 60 | 83 | 0.0 | 2.0 | 0.00 | 0.00 | 0.00 | 86 | 1007.1 |
| 20260902100604 | 60 | 86 | 0.0 | 2.0 | 0.00 | 0.00 | 0.00 | 86 | 1007.1 |
| 20260902100104 | 60 | 90 | 1.0 | 5.0 | 0.00 | 0.00 | 0.00 | 86 | 1007.1 |
| 20260902094605 | 59 | 90 | 0.0 | 0.0 | 0.00 | 0.00 | 0.00 | 86 | 1007.3 |
| 20260902094104 | 59 | 79 | 0.0 | 1.0 | 0.00 | 0.00 | 0.00 | 86 | 1007.1 |
| 20260902093603 | 59 | 130 | 0.0 | 1.0 | 0.00 | 0.00 | 0.00 | 86 | 1007.1 |
| 20260902093104 | 59 | 67 | 0.0 | 1.0 | 0.00 | 0.00 | 0.00 | 86 | 1007.1 |
| 20260902092604 | 59 | 135 | 0.0 | 1.0 | 0.00 | 0.00 | 0.00 | 86 | 1007.1 |
| 20260902092104 | 59 | 135 | 0.0 | 2.0 | 0.00 | 0.00 | 0.00 | 86 | 1007.1 |
| 20260902091603 | 59 | 135 | 0.0 | 0.0 | 0.00 | 0.00 | 0.00 | 86 | 1006.9 |
| 20260902091104 | 59 | 112 | 0.0 | 0.0 | 0.00 | 0.00 | 0.00 | 86 | 1007.1 |
| 20260902090604 | 59 | 112 | 0.0 | 1.0 | 0.00 | 0.00 | 0.00 | 86 | 1007.1 |
| 20260902090104 | 59 | 112 | 0.0 | 2.0 | 0.00 | 0.00 | 0.00 | 85 | 1007.1 |
| 20260902085604 | 59 | 112 | 0.0 | 0.0 | 0.00 | 0.00 | 0.00 | 85 | 1007.1 |
| 20260902085103 | 60 | 112 | 0.0 | 1.0 | 0.00 | 0.00 | 0.00 | 85 | 1007.1 |
| 20260902084104 | 60 | 112 | 0.0 | 2.0 | 0.00 | 0.00 | 0.00 | 85 | 1007.1 |
| 20260902083603 | 60 | 135 | 1.0 | 2.0 | 0.00 | 0.00 | 0.00 | 85 | 1007.3 |
| 20260902083104 | 60 | 67 | 0.0 | 1.0 | 0.00 | 0.00 | 0.00 | 85 | 1007.1 |
| 20260902082604 | 60 | 135 | 0.0 | 2.0 | 0.00 | 0.00 | 0.00 | 85 | 1007.1 |
| 20260902082104 | 60 | 135 | 1.0 | 2.0 | 0.00 | 0.00 | 0.00 | 85 | 1007.1 |
| 20260902081603 | 60 | 135 | 1.0 | 2.0 | 0.00 | 0.00 | 0.00 | 85 | 1007.1 |
| 20260902081105 | 60 | 112 | 1.0 | 2.0 | 0.00 | 0.00 | 0.00 | 85 | 1007.1 |
| 20260902080604 | 60 | 135 | 1.0 | 3.0 | 0.00 | 0.00 | 0.00 | 85 | 1007.1 |
| 20260902080104 | 60 | 112 | 0.0 | 0.0 | 0.00 | 0.00 | 0.00 | 84 | 1007.1 |
| 20260902075605 | 60 | 112 | 0.0 | 2.0 | 0.00 | 0.00 | 0.00 | 84 | 1007.1 |
| 20260902075104 | 60 | 135 | 0.0 | 1.0 | 0.00 | 0.00 | 0.00 | 84 | 1007.1 |
| 20260902074604 | 60 | 135 | 0.0 | 1.0 | 0.00 | 0.00 | 0.00 | 84 | 1007.1 |
| 20260902073103 | 60 | 180 | 0.0 | 2.0 | 0.00 | 0.00 | 0.00 | 83 | 1007.1 |
| 20260902072604 | 60 | 135 | 0.0 | 0.0 | 0.00 | 0.00 | 0.00 | 83 | 1006.8 |
| 20260902072104 | 60 | 225 | 0.0 | 0.0 | 0.00 | 0.00 | 0.00 | 82 | 1007.1 |
| 20260902071603 | 60 | 225 | 0.0 | 0.0 | 0.00 | 0.00 | 0.00 | 81 | 1007.1 |
| 20260902071105 | 60 | 225 | 0.0 | 0.0 | 0.00 | 0.00 | 0.00 | 81 | 1006.9 |
| 20260902070605 | 60 | 225 | 0.0 | 0.0 | 0.00 | 0.00 | 0.00 | 80 | 1006.9 |
| 20260902070104 | 60 | 225 | 0.0 | 0.0 | 0.00 | 0.00 | 0.00 | 80 | 1007.1 |
| 20260902065604 | 61 | 225 | 0.0 | 0.0 | 0.00 | 0.00 | 0.00 | 79 | 1007.1 |
| 20260902065104 | 61 | 225 | 0.0 | 0.0 | 0.00 | 0.00 | 0.00 | 79 | 1007.1 |
| 20260902064604 | 61 | 225 | 0.0 | 0.0 | 0.00 | 0.00 | 0.00 | 79 | 1006.9 |
| 20260902064106 | 61 | 225 | 0.0 | 0.0 | 0.00 | 0.00 | 0.00 | 80 | 1006.8 |
| 20260902063605 | 62 | 225 | 1.0 | 3.0 | 0.00 | 0.00 | 0.00 | 80 | 1006.8 |
| 20260902063105 | 62 | 141 | 0.0 | 2.0 | 0.00 | 0.00 | 0.00 | 80 | 1006.8 |
| 20260902062606 | 62 | 129 | 0.0 | 1.0 | 0.00 | 0.00 | 0.00 | 80 | 1006.8 |
| 20260902061606 | 62 | 157 | 0.0 | 1.0 | 0.00 | 0.00 | 0.00 | 80 | 1006.8 |
| 20260902061106 | 61 | 157 | 1.0 | 2.0 | 0.00 | 0.00 | 0.00 | 80 | 1006.8 |
| 20260902060605 | 61 | 135 | 1.0 | 3.0 | 0.00 | 0.00 | 0.00 | 80 | 1006.9 |